#timestamp,LO_Frequency,Hit,StdDev 
1665154815.3,286047000.7,N
1665154835.2,286046998.5,N
1665154855.9,286046998.4,N
1665154875.7,286047000.5,N
1665154895.6,286047002.0,N
1665154915.4,286047001.9,N
1665154935.2,286047003.3,N
1665154955.1,286047004.2,N
1665154956.0,286047004.2,N
1665154975.8,286047006.0,Y
1665154995.7,286047003.4,P
1665155015.5,286047001.8,N
1665155035.3,286047001.5,N
1665155055.2,286046999.8,N
1665155075.0,286046998.8,N
1665155075.9,286046998.8,N
1665155095.8,286046997.0,N
1665155115.6,286046997.0,N
1665155135.4,286046995.3,N
1665155155.3,286046996.5,N
1665155175.1,286046999.4,N
1665155195.8,286046999.9,N
1665155215.7,286047001.2,N
1665155235.5,286047002.6,N
1665155255.4,286047003.7,N
1665155275.2,286047001.5,N
1665155295.0,286046999.8,N
1665155295.9,286046999.8,N
1665155315.8,286047001.8,N
1665155335.6,286047000.9,N
1665155355.4,286047001.9,N
1665155375.3,286047004.0,N
1665155395.1,286047003.2,N
1665155415.9,286047004.1,N
1665155435.7,286047001.4,N
1665155455.5,286047004.5,N
1665155475.4,286047007.0,N
1665155495.2,286047004.8,N
1665155515.0,286047006.0,N
1665155515.9,286047006.0,N
1665155535.8,286047004.9,N
1665155555.6,286047001.5,N
1665155575.5,286047001.3,N
1665155595.3,286047001.3,N
1665155615.1,286047005.4,N
1665155635.9,286047005.7,N
1665155655.7,286047003.5,N
1665155675.5,286047004.1,N
1665155695.4,286047003.0,N
1665155715.2,286047005.3,N
1665155735.1,286047005.1,N
1665155736.0,286047005.1,N
1665155755.8,286047005.4,N
1665155775.6,286047002.4,N
1665155795.5,286047003.6,N
1665155815.3,286047004.7,N
1665155835.1,286047004.7,N
1665155855.9,286047003.3,N
1665155875.7,286047002.9,N
1665155895.6,286047002.9,N
1665155915.4,286047004.1,N
1665155935.2,286047003.3,N
1665155955.1,286047002.9,N
1665155956.0,286047002.9,N
1665155975.8,286047003.1,N
1665155995.7,286047000.2,N
1665156015.5,286047001.6,N
1665156035.3,286047001.9,N
1665156055.2,286047004.4,N
1665156075.9,286047004.1,N
1665156095.7,286047005.5,Y
1665156115.6,286047000.4,P
1665156135.4,286047000.0,N
1665156155.3,286047001.9,N
1665156175.1,286047002.3,N
1665156176.0,286047002.3,N
1665156195.8,286047001.4,N
1665156215.7,286047003.2,N
1665156235.5,286047004.4,Y
1665156255.3,286047000.3,P
1665156275.2,286047000.7,N
1665156295.0,286047000.8,N
1665156295.9,286047000.8,N
1665156315.8,286046999.4,N
1665156335.6,286047000.3,N
1665156385.5,286047002.8,E
1665156395.4,286046999.3,N
1665156415.2,286046997.6,P
1665156435.1,286046997.1,P
1665156436.0,286046997.1,Y
1665156455.8,286046995.3,P
1665156475.6,286046996.1,N
1665156495.5,286046995.7,P
1665156515.3,286046995.3,Y
1665156535.2,286046996.5,P
1665156555.9,286046999.6,P
1665156575.7,286046999.0,N
1665156595.6,286046998.6,N
1665156615.4,286046999.0,N
1665156635.2,286047000.4,N
1665156655.1,286047002.4,N
1665156656.0,286047002.4,N
1665156675.8,286046999.7,N
1665156695.7,286046999.7,N
1665156715.5,286047002.5,N
1665156735.3,286047001.7,N
1665156755.2,286047001.3,N
1665156775.0,286047003.7,N
1665156775.9,286047003.7,N
1665156795.8,286047003.7,N
1665156815.6,286047004.4,N
1665156835.4,286047001.3,N
1665156855.3,286047000.3,N
1665156875.1,286047004.0,N
1665156895.8,286046999.8,N
1665156915.7,286047000.8,N
1665156935.5,286046999.8,N
1665156955.4,286047002.2,N
1665156975.2,286047000.3,N
1665156995.0,286047000.4,N
1665156995.9,286047000.4,N
1665157015.8,286047001.0,N
1665157035.6,286047000.5,N
1665157055.4,286047001.8,N
1665157075.3,286047003.1,N
1665157095.1,286047003.7,N
1665157115.9,286047005.2,Y
1665157135.7,286047000.5,P
1665157155.5,286047001.7,P
1665157175.4,286047004.0,P
1665157195.2,286047002.6,N
1665157215.1,286046999.9,N
1665157216.0,286046999.9,N
1665157235.8,286046999.1,N
1665157255.6,286046998.2,N
1665157275.5,286047000.0,N
1665157295.3,286047003.7,N
1665157315.1,286047003.5,N
1665157335.9,286047003.9,N
1665157355.7,286047002.4,N
1665157375.6,286047001.6,N
1665157395.4,286047004.0,N
1665157415.2,286047002.0,N
1665157435.1,286047001.6,N
1665157436.0,286047001.6,N
1665157455.8,286047002.4,N
1665157475.7,286046998.5,N
1665157495.5,286047002.6,N
1665157515.3,286047003.9,N
1665157535.2,286047003.7,N
1665157555.9,286047001.8,N
1665157575.7,286047003.0,N
1665157595.6,286047003.0,N
1665157615.4,286047005.5,Y
1665157635.3,286047002.7,P
1665157685.1,286047004.3,E
1665157695.0,286047001.0,N
1665157695.9,286047001.0,P
1665157715.8,286046997.5,P
1665157735.6,286046999.3,N
1665157755.5,286046998.7,N
1665157775.3,286046998.6,N
1665157795.1,286046997.4,N
1665157815.9,286046996.2,N
1665157835.7,286046992.2,Y
1665157855.5,286046994.0,P
1665157875.4,286046996.2,N
1665157895.2,286046995.7,N
1665157915.1,286046995.6,N
1665157916.0,286046995.6,N
1665157935.8,286046993.6,Y
1665157955.6,286046998.9,P
1665157975.5,286046997.1,N
1665157995.3,286046998.9,N
1665158015.1,286046998.4,N
1665158035.9,286046999.7,N
1665158055.7,286047000.4,N
1665158075.6,286047002.0,N
1665158095.4,286046998.2,N
1665158115.2,286046997.7,N
1665158135.1,286046996.3,N
1665158136.0,286046996.3,N
1665158155.8,286046995.0,N
1665158175.7,286046997.1,N
1665158195.5,286046996.3,N
1665158215.3,286046996.3,N
1665158235.2,286046994.3,Y
1665158255.9,286046995.5,P
1665158275.7,286046995.6,P
1665158295.6,286046997.6,N
1665158315.4,286046999.0,N
1665158335.3,286047001.1,N
1665158355.1,286047000.6,N
1665158356.0,286047000.6,N
1665158375.8,286046999.7,N
1665158395.7,286047002.4,N
